| time (UTC) | temp F | wind direction | speed MPH | gust MPH | rain 1hr in | rain 24hr in | rain mn in | humidity % | barometer mb |
| 20260503223846 | 63 | 325 | 2.0 | 11.0 | 0.00 | 0.00 | 0.00 | 53 | 1010.5 |
| 20260503223045 | 62 | 322 | 2.0 | 11.0 | 0.00 | 0.00 | 0.00 | 54 | 1010.6 |
| 20260503222244 | 62 | 291 | 2.0 | 11.0 | 0.00 | 0.00 | 0.00 | 53 | 1010.5 |
| 20260503221443 | 63 | 329 | 1.0 | 11.0 | 0.00 | 0.00 | 0.00 | 53 | 1010.7 |
| 20260503220643 | 63 | 326 | 1.0 | 11.0 | 0.00 | 0.00 | 0.00 | 54 | 1010.7 |
| 20260503215842 | 63 | 24 | 0.0 | 11.0 | 0.00 | 0.00 | 0.00 | 53 | 1010.6 |
| 20260503215041 | 63 | 233 | 1.0 | 11.0 | 0.00 | 0.00 | 0.00 | 53 | 1010.7 |
| 20260503213726 | 63 | 167 | 0.0 | 11.0 | 0.00 | 0.00 | 0.00 | 53 | 1010.7 |
| 20260503212926 | 62 | 173 | 1.0 | 11.0 | 0.00 | 0.00 | 0.00 | 53 | 1011.1 |
| 20260503212124 | 62 | 220 | 2.0 | 11.0 | 0.00 | 0.00 | 0.00 | 52 | 1011.2 |
| 20260503211324 | 63 | 240 | 2.0 | 11.0 | 0.00 | 0.00 | 0.00 | 51 | 1011.2 |
| 20260503210008 | 64 | 58 | 1.0 | 11.0 | 0.00 | 0.00 | 0.00 | 49 | 1010.9 |
| 20260503205208 | 64 | 228 | 2.0 | 11.0 | 0.00 | 0.00 | 0.00 | 48 | 1010.9 |
| 20260503204407 | 64 | 217 | 2.0 | 11.0 | 0.00 | 0.00 | 0.00 | 49 | 1011.1 |
| 20260503203606 | 63 | 242 | 2.0 | 11.0 | 0.00 | 0.00 | 0.00 | 50 | 1011.5 |
| 20260503202249 | 63 | 264 | 5.0 | 11.0 | 0.00 | 0.00 | 0.00 | 48 | 1011.7 |
| 20260503200932 | 63 | 249 | 2.0 | 11.0 | 0.00 | 0.00 | 0.00 | 49 | 1012.1 |
| 20260503200132 | 63 | 340 | 5.0 | 11.0 | 0.00 | 0.00 | 0.00 | 47 | 1012.5 |
| 20260503195331 | 64 | 278 | 2.0 | 11.0 | 0.00 | 0.00 | 0.00 | 48 | 1012.7 |
| 20260503194531 | 64 | 222 | 2.0 | 11.0 | 0.00 | 0.00 | 0.00 | 50 | 1013.2 |
| 20260503193730 | 64 | 273 | 2.0 | 11.0 | 0.00 | 0.00 | 0.00 | 49 | 1013.1 |
| 20260503192929 | 62 | 247 | 3.0 | 11.0 | 0.00 | 0.00 | 0.00 | 51 | 1013.4 |
| 20260503192129 | 61 | 232 | 3.0 | 11.0 | 0.00 | 0.00 | 0.00 | 52 | 1013.8 |
| 20260503190812 | 61 | 234 | 3.0 | 11.0 | 0.00 | 0.00 | 0.00 | 50 | 1014.6 |
| 20260503185456 | 61 | 244 | 2.0 | 11.0 | 0.00 | 0.00 | 0.00 | 50 | 1014.5 |
| 20260503184655 | 61 | 235 | 3.0 | 11.0 | 0.00 | 0.00 | 0.00 | 50 | 1014.6 |
| 20260503183338 | 61 | 325 | 4.0 | 11.0 | 0.00 | 0.00 | 0.00 | 47 | 1014.8 |
| 20260503182538 | 63 | 348 | 4.0 | 11.0 | 0.00 | 0.00 | 0.00 | 49 | 1015.0 |
| 20260503181737 | 63 | 339 | 3.0 | 11.0 | 0.00 | 0.00 | 0.00 | 50 | 1014.5 |
| 20260503180936 | 62 | 353 | 4.0 | 11.0 | 0.00 | 0.00 | 0.00 | 50 | 1014.7 |
| 20260503180135 | 62 | 353 | 7.0 | 11.0 | 0.00 | 0.00 | 0.00 | 46 | 1015.1 |
| 20260503175334 | 63 | 332 | 2.0 | 11.0 | 0.00 | 0.00 | 0.00 | 48 | 1015.0 |
| 20260503174534 | 63 | 351 | 5.0 | 11.0 | 0.00 | 0.00 | 0.00 | 46 | 1015.3 |
| 20260503173733 | 62 | 318 | 5.0 | 11.0 | 0.00 | 0.00 | 0.00 | 49 | 1015.2 |
| 20260503172932 | 63 | 318 | 4.0 | 11.0 | 0.00 | 0.00 | 0.00 | 50 | 1015.4 |
| 20260503172131 | 63 | 322 | 5.0 | 11.0 | 0.00 | 0.00 | 0.00 | 49 | 1015.7 |
| 20260503171330 | 63 | 326 | 5.0 | 11.0 | 0.00 | 0.00 | 0.00 | 50 | 1015.7 |
| 20260503170529 | 63 | 264 | 3.0 | 11.0 | 0.00 | 0.00 | 0.00 | 49 | 1016.1 |
| 20260503150533 | 58 | 325 | 5.0 | 11.0 | 0.00 | 0.00 | 0.00 | 57 | 1017.7 |
| 20260503131054 | 52 | 264 | 3.0 | 11.0 | 0.00 | 0.00 | 0.00 | 68 | 1018.5 |
| 20260503110541 | 44 | 334 | 4.0 | 11.0 | 0.00 | 0.00 | 0.00 | 66 | 1018.2 |
| 20260503090259 | 42 | 332 | 2.0 | 11.0 | 0.00 | 0.00 | 0.00 | 71 | 1018.6 |
| 20260503081226 | 41 | 324 | 0.0 | 11.0 | 0.00 | 0.00 | 0.00 | 75 | 1018.7 |
| 20260503080426 | 41 | 333 | 0.0 | 11.0 | 0.00 | 0.00 | 0.00 | 75 | 1018.3 |
| 20260503072423 | 41 | 0 | 0.0 | 11.0 | 0.00 | 0.00 | 0.00 | 77 | 1018.5 |
| 20260503071623 | 40 | 39 | 0.0 | 11.0 | 0.00 | 0.00 | 0.00 | 77 | 1018.7 |
| 20260503070306 | 40 | 138 | 0.0 | 11.0 | 0.00 | 0.00 | 0.00 | 79 | 1018.6 |
| 20260503055102 | 40 | 142 | 0.0 | 11.0 | 0.00 | 0.00 | 0.00 | 80 | 1018.9 |
| 20260503054302 | 40 | 138 | 0.0 | 11.0 | 0.00 | 0.00 | 0.00 | 80 | 1019.0 |
| 20260503053502 | 40 | 140 | 0.0 | 11.0 | 0.00 | 0.00 | 0.00 | 81 | 1018.7 |
| 20260503052701 | 40 | 138 | 0.0 | 11.0 | 0.00 | 0.00 | 0.00 | 81 | 1018.6 |
| 20260503051344 | 40 | 138 | 0.0 | 11.0 | 0.00 | 0.00 | 0.00 | 81 | 1018.7 |
| 20260503050544 | 40 | 138 | 0.0 | 11.0 | 0.00 | 0.00 | 0.00 | 80 | 1018.5 |
| 20260503045743 | 40 | 147 | 0.0 | 11.0 | 0.00 | 0.00 | 0.00 | 80 | 1019.0 |
| 20260503044426 | 40 | 132 | 0.0 | 11.0 | 0.00 | 0.00 | 0.00 | 80 | 1018.7 |
| 20260503043625 | 40 | 134 | 0.0 | 11.0 | 0.00 | 0.00 | 0.00 | 80 | 1018.8 |
| 20260503042310 | 40 | 146 | 0.0 | 11.0 | 0.00 | 0.00 | 0.00 | 80 | 1018.7 |
| 20260503041509 | 40 | 145 | 0.0 | 11.0 | 0.00 | 0.00 | 0.00 | 80 | 1018.8 |
| 20260503040709 | 41 | 148 | 0.0 | 11.0 | 0.00 | 0.00 | 0.00 | 79 | 1018.9 |
| 20260503035909 | 41 | 146 | 0.0 | 11.0 | 0.00 | 0.00 | 0.00 | 79 | 1018.7 |
| 20260503035109 | 41 | 144 | 0.0 | 11.0 | 0.00 | 0.00 | 0.00 | 79 | 1018.9 |
| 20260503034308 | 41 | 134 | 0.0 | 11.0 | 0.00 | 0.00 | 0.00 | 79 | 1018.9 |
| 20260503033507 | 41 | 140 | 0.0 | 11.0 | 0.00 | 0.00 | 0.00 | 80 | 1018.9 |
| 20260503032707 | 42 | 138 | 0.0 | 11.0 | 0.00 | 0.00 | 0.00 | 79 | 1019.0 |
| 20260503031907 | 42 | 137 | 0.0 | 11.0 | 0.00 | 0.00 | 0.00 | 77 | 1018.8 |
| 20260503031107 | 42 | 131 | 0.0 | 11.0 | 0.00 | 0.00 | 0.00 | 77 | 1018.8 |
| 20260503030306 | 42 | 143 | 0.0 | 11.0 | 0.00 | 0.00 | 0.00 | 73 | 1019.0 |
| 20260503025505 | 42 | 132 | 0.0 | 11.0 | 0.00 | 0.00 | 0.00 | 72 | 1018.8 |
| 20260503024705 | 43 | 142 | 0.0 | 11.0 | 0.00 | 0.00 | 0.00 | 73 | 1018.9 |
| 20260503023348 | 43 | 133 | 0.0 | 11.0 | 0.00 | 0.00 | 0.00 | 72 | 1018.6 |
| 20260503022033 | 44 | 148 | 0.0 | 11.0 | 0.00 | 0.00 | 0.00 | 74 | 1018.6 |
| 20260503021233 | 44 | 150 | 0.0 | 11.0 | 0.00 | 0.00 | 0.00 | 72 | 1018.6 |
| 20260503020432 | 45 | 148 | 0.0 | 11.0 | 0.00 | 0.00 | 0.00 | 72 | 1018.7 |
| 20260503015631 | 45 | 149 | 0.0 | 11.0 | 0.00 | 0.00 | 0.00 | 71 | 1018.8 |
| 20260503014829 | 45 | 153 | 0.0 | 11.0 | 0.00 | 0.00 | 0.00 | 72 | 1018.5 |
| 20260503014030 | 46 | 160 | 0.0 | 11.0 | 0.00 | 0.00 | 0.00 | 70 | 1019.0 |
| 20260503012713 | 46 | 168 | 0.0 | 11.0 | 0.00 | 0.00 | 0.00 | 65 | 1018.5 |
| 20260503011913 | 47 | 175 | 0.0 | 11.0 | 0.00 | 0.00 | 0.00 | 63 | 1018.5 |
| 20260503011113 | 47 | 166 | 0.0 | 11.0 | 0.00 | 0.00 | 0.00 | 61 | 1018.3 |
| 20260503005757 | 48 | 171 | 0.0 | 11.0 | 0.00 | 0.00 | 0.00 | 59 | 1018.0 |
| 20260503004440 | 49 | 174 | 0.0 | 11.0 | 0.00 | 0.00 | 0.00 | 56 | 1018.4 |
| 20260503003638 | 50 | 173 | 0.0 | 11.0 | 0.00 | 0.00 | 0.00 | 58 | 1018.2 |
| 20260503002837 | 50 | 179 | 0.0 | 11.0 | 0.00 | 0.00 | 0.00 | 56 | 1018.1 |
| 20260503002036 | 51 | 158 | 0.0 | 11.0 | 0.00 | 0.00 | 0.00 | 53 | 1018.3 |
| 20260503001236 | 52 | 122 | 0.0 | 11.0 | 0.00 | 0.00 | 0.00 | 53 | 1018.2 |
| 20260503000437 | 52 | 128 | 0.0 | 11.0 | 0.00 | 0.00 | 0.00 | 52 | 1018.1 |
| 20260502235634 | 53 | 127 | 0.0 | 11.0 | 0.00 | 0.00 | 0.00 | 50 | 1018.1 |
| 20260502234318 | 53 | 189 | 0.0 | 11.0 | 0.00 | 0.00 | 0.00 | 42 | 1018.2 |
| 20260502233001 | 54 | 0 | 0.0 | 11.0 | 0.00 | 0.00 | 0.00 | 42 | 1016.1 |
| 20260502232200 | 54 | 350 | 1.0 | 11.0 | 0.00 | 0.00 | 0.00 | 40 | 1018.5 |
| 20260502230329 | 55 | 359 | 1.0 | 11.0 | 0.00 | 0.00 | 0.00 | 41 | 1018.4 |
| 20260502225528 | 56 | 0 | 1.0 | 11.0 | 0.00 | 0.00 | 0.00 | 39 | 1018.2 |
| 20260502224727 | 56 | 334 | 2.0 | 11.0 | 0.00 | 0.00 | 0.00 | 36 | 1018.2 |